User: anonymous   Login
Location: Hepcat Sky Observatory
(29.9800°N, 95.6500°W)
Time: 09:08:18
(UTC-05:00)
Language:

Cosmos 2151 Rocket - Orbit

View from above orbital plane
View from above orbital plane
View from above satellite
View from above satellite

Ground track
Ground track

The orbit data is extracted from the following two-line orbital elements,

1 21423U 91042B   17294.17778853  .00000103  00000-0  10559-4 0  9995
2 21423  82.4967 203.6763 0017171 193.0306 167.0466 14.79709786421214
Epoch (UTC): 21 October 2017 04:16:00
Eccentricity: 0.0017171
inclination: 82.4967°
perigee height: 618 km
apogee height: 642 km
right ascension of ascending node: 203.6763°
argument of perigee: 193.0306°
revolutions per day: 14.79709786
mean anomaly at epoch: 167.0466°
orbit number at epoch: 42121

The dashed part of the orbit path shows where the satellite is in the earth's shadow,  

DLR